Vertical_Velocity
-1 1 2 2 2 -0 0 -0 0 2 -0 -1 -2 -0 -2 4 -2 -2 -6 -2 2 -1 -1 -1 2 -1 0 -1 -1 1 1 0 0 0 1 1 0 3 6 2 2 8 -6 -2 -6 -12 -5
1 -1 2 1 2 -1 -1 1 1 1 1 -1 1 -1 1 0 -3 -1 -4 -2 3 2 -0 -4 -2 -1 -1 -0 -2 1 2 0 0 -2 -2 -0 1 6 1 2 3 4 -2 -0 -4 -7 1
1 0 0 1 -0 2 -2 -0 1 -0 1 -1 -0 -1 1 -2 3 -3 -3 -5 1 1 -4 -1 -2 -2 0 1 -1 4 1 -0 -2 -2 1 -1 2 4 2 -4 4 -0 5 5 1 0 -12
1 2 2 0 1 1 0 -1 0 -2 -0 -0 1 -2 2 1 -2 1 -4 -8 2 1 -1 -4 -3 -2 1 -3 0 3 -1 -0 -2 -2 3 4 -1 -4 -6 -0 5 -2 -4 7 -4 -1 -1
2 3 3 0 -1 -0 -0 -1 1 -2 -0 -1 -0 -0 2 -3 -2 -1 -2 -1 -2 0 -0 -5 -4 1 -1 -3 -1 1 3 -2 -2 1 6 4 5 1 2 -1 -1 -2 -0 14 2 1 -2
2 2 -1 2 2 2 1 -1 -0 0 -1 -2 -1 -0 1 -1 3 -0 -4 -0 -2 1 -2 -5 -0 1 -1 -2 -3 1 2 -1 -4 1 -0 4 5 5 2 -1 2 5 24 4 7 -1 0
3 3 1 1 0 1 -0 1 0 0 -0 0 -1 1 -0 -1 3 -2 -1 -2 -1 -0 -5 -5 1 -0 -1 -0 -0 1 -1 -0 -3 -4 6 -1 1 0 10 -5 7 16 7 7 6 1 -2
-1 0 3 4 4 1 -2 1 1 1 0 -0 -1 0 0 -1 1 -2 -1 -1 -2 5 -4 -4 1 1 -2 -0 -5 -2 -1 0 2 5 -9 -3 -4 4 14 4 2 -1 8 10 -8 -2 -6
4 -1 -2 2 1 5 3 -2 3 1 1 -0 -1 4 2 -4 -2 1 -2 -2 -5 3 -2 -4 -1 1 -3 1 -1 1 -0 2 9 17 12 2 16 8 2 3 -5 -3 4 11 10 -6 -10
-2 2 -2 -2 1 8 2 -7 8 3 1 0 2 2 2 -0 -0 1 -0 -4 -5 0 1 -5 -1 -1 -3 0 -3 -7 -3 -2 -0 13 5 2 -2 5 -0 2 7 4 -0 7 -10 -4 -7
0 -3 -4 1 -3 3 4 -2 1 1 1 -1 5 0 1 8 -1 -5 3 -5 -0 3 3 -12 -4 -2 -2 0 2 1 -3 0 1 -0 -6 43 3 1 10 46 -8 8 10 -3 -5 -9 91
-1 -2 -2 -2 -3 4 -1 1 1 3 3 1 3 -3 3 5 1 -0 4 -2 -1 2 -3 -7 -3 -3 -2 -1 1 0 -7 -1 -2 -3 1 -8 8 -12 21 -5 -6 -4 -5 -4 -6 1 -19
3 3 1 1 -2 2 1 2 -3 1 3 2 3 0 4 0 -4 2 3 -2 -0 -4 -1 -1 -2 -5 -1 0 -2 -1 -7 -4 -5 -1 0 2 -1 -4 -3 -2 -2 -1 -3 5 4 7 -17
12 4 4 -1 3 -1 4 1 -2 -4 2 5 4 2 -3 -0 -0 -3 4 -4 -3 0 1 3 -3 -4 -1 -1 -1 -1 -2 -4 -5 9 3 -6 -16 -4 -3 -0 2 -2 5 -1 15 -3 -5
5 9 9 2 3 1 1 2 -1 -1 -1 4 -2 4 5 4 1 -2 -1 -5 -2 3 7 2 -1 -3 -2 -1 -3 -1 0 -0 -1 -8 44 24 54 2 -4 -2 0 -2 1 -7 -9 1 -4
2 3 9 8 1 -1 2 4 -4 -3 -4 12 9 4 11 -1 3 1 -6 8 -6 -5 8 -4 -0 -3 0 -0 -1 -1 -1 -1 -6 -6 -9 -8 -2 -0 -1 -1 0 1 -7 2 1 -3 -3
-2 3 5 7 4 -2 1 5 -3 -8 7 6 9 -3 -2 2 -0 -6 0 1 -5 3 3 -5 -0 -1 -2 -1 0 1 1 -4 -0 -3 0 -0 2 -7 -3 -0 3 1 -1 3 1 -1 2
-4 -2 0 12 18 -0 -5 6 -2 -4 11 -10 11 -8 9 -0 -7 3 1 -1 -6 7 -2 -4 -4 -2 -0 1 1 -1 1 1 -3 -1 0 -1 -0 -7 2 -5 -0 1 1 -1 0 -1 -0
1 11 11 1 9 14 6 4 -5 -0 -13 28 8 -2 -4 -4 -16 3 5 4 -12 8 -3 -1 -0 -2 -2 0 -1 -1 0 3 -1 1 -3 2 -1 -1 -1 -1 0 1 2 2 -1 -1 -1
0 6 9 21 14 6 7 9 16 -8 6 13 12 -9 -14 -4 5 5 -5 3 -3 2 -5 -1 -1 -2 -2 -2 -1 -2 -2 1 1 1 2 0 -0 -0 0 7 -3 0 -1 -1 -3 -1 2
-1 -6 2 7 28 15 3 4 8 6 18 1 -21 -17 13 -16 -11 4 1 2 0 -1 -1 -0 -2 -2 1 -0 1 -1 -1 2 1 1 1 -1 1 -1 -1 0 0 -1 -1 -2 -3 5 -9
-1 1 1 5 15 24 -1 1 3 23 10 -0 -5 -27 -5 9 -1 2 0 -6 5 5 0 4 -1 -0 1 0 3 1 -1 1 0 1 -1 1 -2 0 0 -1 -1 -3 -3 -3 -0 2 -2
1 2 3 -2 2 18 14 17 -1 2 -18 18 24 -8 3 7 1 -2 -1 5 8 1 3 -7 -2 -3 0 -1 1 0 1 1 2 -1 -0 0 1 -0 -1 1 -2 -5 5 2 1 2 1
5 -0 -2 5 3 11 18 10 -0 -7 19 31 25 18 7 -2 -2 12 0 3 1 2 1 2 0 -2 2 -2 -1 0 -1 1 1 1 0 2 0 -0 1 -0 -3 2 4 1 -1 2 1
2 -3 -1 -10 -0 18 19 -6 1 6 11 5 -3 10 -1 -4 17 -6 -2 5 6 -5 -6 -6 2 2 -1 -1 -1 0 1 1 1 1 1 2 1 1 -4 -1 2 4 -0 1 0 9 -12
-2 0 -5 -18 10 24 -11 -5 3 10 2 11 3 -2 -10 -0 -2 18 2 7 -6 -3 5 -2 -3 -1 -1 -2 0 3 2 -0 2 2 1 0 -0 -1 2 -2 -3 -3 -0 -0 0 0 8
0 -3 -10 23 35 16 12 4 4 1 4 1 -1 4 9 8 -6 4 -6 11 12 5 4 4 1 -1 -2 1 1 1 2 -0 2 2 1 2 1 2 -0 -2 -1 -0 0 -1 -3 -3 -1
-3 -3 -1 5 -11 15 9 8 1 3 1 7 -0 -1 2 0 0 3 -11 1 -3 -7 5 5 -3 -4 -1 -1 -0 1 1 1 0 0 2 1 -2 1 -2 -1 -5 0 -4 2 2 -0 1
-3 7 -3 -5 3 2 9 3 5 1 2 10 8 6 0 -9 3 -1 12 11 -3 -13 2 4 -0 -6 -4 -8 3 -1 1 2 0 0 -2 -2 -2 -1 -1 -5 0 -4 -0 -2 2 2 -3
Height
5775 5778 5781 5784 5785 5788 5790 5791 5793 5794 5795 5796 5795 5794 5793 5792 5790 5789 5785 5780 5776 5772 5768 5767 5764 5763 5762 5761 5758 5757 5756 5757 5757 5758 5760 5761 5765 5768 5773 5776 5780 5783 5785 5788 5789 5790 5790
5765 5767 5771 5774 5776 5779 5781 5783 5785 5786 5788 5790 5790 5789 5788 5788 5786 5784 5781 5775 5772 5768 5765 5763 5761 5760 5760 5759 5757 5756 5756 5756 5757 5757 5758 5761 5763 5766 5770 5774 5778 5781 5784 5785 5786 5787 5788
5753 5757 5759 5763 5768 5770 5773 5775 5777 5779 5782 5783 5784 5783 5783 5783 5780 5780 5776 5771 5768 5765 5762 5760 5759 5758 5758 5758 5756 5756 5756 5755 5756 5756 5757 5761 5763 5766 5770 5775 5777 5780 5783 5784 5785 5786 5786
5740 5745 5749 5752 5757 5762 5764 5767 5771 5773 5775 5776 5777 5777 5777 5778 5776 5774 5773 5768 5764 5762 5759 5759 5758 5757 5755 5755 5755 5755 5755 5755 5755 5756 5759 5762 5765 5769 5772 5775 5777 5780 5783 5786 5784 5786 5789
5726 5732 5737 5742 5746 5751 5756 5759 5762 5766 5767 5769 5771 5772 5772 5773 5772 5769 5768 5764 5760 5759 5757 5757 5756 5755 5755 5754 5755 5755 5755 5756 5757 5758 5760 5763 5766 5770 5773 5774 5779 5781 5785 5787 5787 5788 5790
5712 5718 5725 5730 5736 5740 5745 5750 5754 5757 5760 5762 5764 5765 5766 5767 5767 5765 5763 5760 5756 5756 5755 5755 5755 5755 5754 5755 5755 5755 5757 5757 5759 5760 5762 5764 5767 5770 5773 5776 5781 5784 5787 5789 5789 5787 5790
5698 5705 5713 5719 5724 5730 5734 5739 5745 5749 5752 5755 5758 5759 5761 5761 5761 5760 5759 5756 5755 5754 5753 5754 5753 5752 5753 5754 5754 5755 5757 5758 5760 5762 5763 5764 5768 5771 5774 5776 5780 5786 5788 5790 5789 5788 5790
5681 5689 5698 5706 5714 5720 5723 5729 5734 5740 5744 5746 5751 5753 5755 5755 5756 5756 5754 5752 5750 5751 5751 5751 5750 5751 5752 5754 5755 5756 5757 5759 5762 5765 5765 5767 5769 5771 5775 5777 5781 5785 5788 5788 5786 5787 5788
5665 5673 5680 5689 5698 5706 5713 5716 5724 5730 5735 5739 5744 5746 5748 5749 5751 5752 5750 5748 5747 5747 5749 5748 5747 5749 5750 5753 5754 5757 5758 5761 5762 5764 5765 5765 5771 5773 5776 5778 5781 5784 5787 5784 5788 5788 5789
5643 5653 5664 5671 5681 5689 5700 5706 5712 5719 5725 5730 5735 5738 5741 5744 5747 5747 5745 5744 5744 5745 5746 5745 5744 5746 5747 5749 5752 5754 5756 5760 5761 5765 5766 5766 5769 5772 5775 5779 5781 5782 5784 5784 5787 5787 5788
5620 5631 5643 5653 5663 5674 5683 5693 5700 5708 5716 5720 5725 5729 5733 5737 5740 5741 5741 5740 5740 5742 5743 5740 5740 5742 5743 5747 5751 5752 5754 5757 5759 5764 5766 5767 5771 5774 5777 5774 5780 5778 5781 5784 5785 5786 5781
5599 5610 5621 5632 5645 5656 5668 5679 5688 5696 5705 5712 5717 5721 5727 5732 5734 5735 5735 5736 5736 5739 5736 5737 5738 5739 5742 5744 5747 5751 5753 5756 5758 5762 5765 5764 5771 5773 5774 5776 5777 5779 5781 5782 5783 5786 5786
5577 5588 5601 5612 5625 5638 5651 5664 5675 5686 5694 5703 5708 5713 5719 5722 5726 5729 5730 5732 5732 5732 5734 5735 5737 5739 5742 5744 5746 5749 5753 5755 5759 5763 5766 5768 5769 5771 5773 5775 5775 5777 5780 5782 5785 5785 5784
5553 5567 5580 5592 5606 5620 5636 5647 5661 5674 5682 5691 5697 5704 5710 5716 5718 5721 5724 5727 5726 5729 5730 5733 5736 5738 5742 5744 5746 5749 5752 5755 5759 5762 5764 5769 5770 5769 5771 5773 5776 5775 5780 5781 5779 5782 5784
5522 5543 5558 5573 5586 5603 5619 5636 5647 5661 5671 5679 5687 5694 5702 5709 5712 5715 5719 5720 5724 5727 5729 5732 5735 5737 5741 5742 5746 5749 5752 5758 5759 5760 5761 5767 5763 5766 5768 5769 5772 5774 5775 5776 5777 5777 5778
5487 5511 5532 5550 5566 5585 5603 5620 5634 5648 5659 5669 5677 5686 5694 5700 5705 5708 5712 5718 5719 5722 5727 5730 5734 5737 5740 5742 5745 5747 5751 5754 5755 5757 5760 5763 5765 5764 5765 5767 5769 5770 5771 5774 5773 5773 5773
5451 5476 5498 5523 5543 5564 5585 5603 5620 5636 5648 5655 5666 5675 5682 5690 5696 5700 5706 5715 5715 5721 5725 5730 5734 5736 5739 5742 5744 5747 5752 5751 5752 5755 5757 5759 5761 5760 5762 5764 5766 5767 5767 5769 5769 5770 5770
5415 5438 5463 5489 5513 5537 5563 5585 5604 5622 5632 5645 5654 5665 5673 5681 5687 5694 5702 5708 5712 5718 5724 5728 5731 5734 5737 5740 5742 5745 5747 5749 5750 5752 5754 5755 5757 5756 5759 5759 5761 5762 5764 5765 5766 5767 5767
5389 5405 5426 5457 5487 5513 5537 5563 5586 5606 5622 5635 5643 5654 5662 5674 5680 5688 5698 5703 5707 5714 5720 5726 5729 5732 5735 5738 5740 5742 5743 5745 5747 5749 5750 5752 5753 5754 5755 5758 5759 5760 5761 5762 5762 5763 5765
5372 5385 5401 5424 5457 5492 5522 5544 5564 5590 5608 5621 5632 5642 5653 5666 5674 5683 5691 5698 5703 5710 5716 5722 5726 5729 5733 5734 5736 5737 5739 5741 5742 5744 5746 5747 5749 5750 5753 5756 5754 5756 5757 5758 5758 5760 5761
5364 5376 5388 5409 5431 5468 5506 5533 5551 5570 5591 5603 5618 5635 5650 5655 5665 5675 5685 5695 5700 5706 5712 5718 5723 5726 5729 5730 5731 5732 5734 5736 5737 5739 5741 5743 5744 5745 5746 5748 5750 5751 5753 5754 5755 5758 5757
5357 5368 5380 5401 5422 5448 5488 5518 5538 5557 5572 5592 5612 5626 5642 5653 5662 5670 5679 5686 5696 5705 5710 5716 5721 5723 5725 5726 5728 5729 5730 5732 5733 5735 5736 5738 5739 5741 5743 5745 5746 5747 5749 5751 5752 5752 5752
5350 5361 5374 5394 5417 5442 5479 5510 5528 5546 5570 5589 5604 5620 5633 5644 5654 5664 5673 5681 5691 5699 5706 5710 5716 5720 5722 5723 5724 5725 5726 5728 5729 5731 5732 5733 5736 5737 5739 5741 5741 5743 5746 5746 5746 5746 5745
5346 5357 5368 5392 5418 5442 5475 5501 5522 5542 5566 5585 5597 5614 5626 5638 5647 5658 5669 5678 5687 5696 5701 5707 5713 5717 5720 5721 5722 5722 5723 5724 5725 5726 5728 5730 5731 5733 5735 5736 5737 5740 5741 5740 5739 5740 5738
5343 5352 5367 5392 5425 5452 5477 5497 5518 5539 5559 5579 5594 5608 5622 5633 5643 5653 5665 5673 5683 5690 5695 5702 5709 5713 5716 5718 5719 5721 5721 5722 5722 5722 5724 5726 5728 5729 5730 5732 5733 5733 5733 5734 5733 5733 5728
5339 5352 5372 5405 5434 5458 5473 5493 5515 5538 5559 5580 5591 5604 5618 5630 5639 5652 5659 5669 5676 5685 5693 5698 5704 5709 5712 5715 5717 5718 5719 5720 5720 5720 5721 5723 5724 5725 5726 5727 5727 5726 5727 5727 5725 5724 5721
5344 5363 5392 5415 5438 5457 5477 5495 5518 5539 5558 5576 5590 5601 5614 5626 5635 5645 5655 5664 5673 5681 5688 5695 5700 5704 5708 5711 5713 5715 5716 5717 5717 5718 5719 5719 5720 5721 5720 5721 5721 5721 5720 5719 5718 5718 5712
5366 5392 5414 5428 5448 5469 5488 5507 5524 5544 5561 5575 5588 5600 5612 5623 5631 5639 5648 5659 5668 5676 5684 5691 5695 5699 5704 5707 5709 5711 5712 5713 5714 5715 5715 5716 5716 5716 5716 5715 5715 5714 5712 5711 5709 5705 5701
5396 5411 5425 5445 5461 5481 5497 5514 5533 5548 5563 5577 5588 5600 5609 5618 5628 5636 5646 5655 5662 5672 5681 5686 5690 5694 5698 5701 5704 5706 5707 5709 5710 5710 5710 5711 5711 5710 5711 5708 5705 5703 5702 5699 5697 5693 5689